This is the latest recevied weather packets stored in our database for station/object BG5HLN-13. If no packets are shown the sender has not sent any weather packets the latest 10 day(s).
| Time | Temp. | Humidity | Pressure | Rain* | Wind** | Luminosity | Snow |
|---|---|---|---|---|---|---|---|
| 1777878484 | 26.67° C | 53% | 1015.7 hPa | 0 mm | - | - | - |
| 1777877883 | 26.11° C | 48% | 1015.9 hPa | 0 mm | - | - | - |
| 1777877283 | 26.67° C | 47% | 1015.9 hPa | 0 mm | - | - | - |
| 1777876775 | 26.67° C | 51% | 1016 hPa | 0 mm | - | - | - |
| 1777876683 | 26.11° C | 50% | 1016.1 hPa | 0 mm | - | - | - |
| 1777876083 | 26.11° C | 45% | 1016.1 hPa | 0 mm | - | - | - |
| 1777875484 | 26.67° C | 47% | 1016.1 hPa | 0 mm | - | - | - |
| 1777874975 | 26.11° C | 49% | 1016.1 hPa | 0 mm | - | - | - |
| 1777874884 | 26.11° C | 47% | 1016.1 hPa | 0 mm | - | - | - |
| 1777874284 | 26.11° C | 49% | 1016.3 hPa | 0 mm | - | - | - |
| 1777873683 | 26.67° C | 52% | 1016.3 hPa | 0 mm | - | - | - |
| 1777873174 | 25.56° C | 51% | 1016.5 hPa | 0 mm | - | - | - |
| 1777873083 | 25.56° C | 50% | 1016.6 hPa | 0 mm | - | - | - |
| 1777872483 | 26.11° C | 51% | 1016.7 hPa | 0 mm | - | - | - |
| 1777871883 | 25.56° C | 55% | 1016.6 hPa | 0 mm | - | - | - |
| 1777871375 | 26.11° C | 53% | 1016.8 hPa | 0 mm | - | - | - |
| 1777871283 | 26.11° C | 51% | 1016.9 hPa | 0 mm | - | - | - |
| 1777870083 | 25.56° C | 50% | 1016.8 hPa | 0 mm | - | - | - |
| 1777869575 | 25.56° C | 53% | 1016.9 hPa | 0 mm | - | - | - |
| 1777869483 | 25.56° C | 52% | 1016.9 hPa | 0 mm | - | - | - |
| 1777868882 | 25° C | 52% | 1016.9 hPa | 0 mm | - | - | - |
| 1777868283 | 25.56° C | 52% | 1017 hPa | 0 mm | - | - | - |
| 1777867774 | 25° C | 49% | 1017.1 hPa | 0 mm | - | - | - |
| 1777867683 | 25.56° C | 53% | 1017.1 hPa | 0 mm | - | - | - |
| 1777867083 | 25° C | 53% | 1017.2 hPa | 0 mm | - | - | - |
* Rain latest hour (hover to see other rain measurements)
** Current wind speed in m/s (hover to see current wind gust speed)